Valencia Aeropuerto, Spain

9:18 PM CEST on April 25, 2017 (GMT +0200)
Manises

Weather History for LEVC - February, 2013

Change the Weather History Date:

Saturday, February 16, 2013

  Actual Average Record
Temperature  
Mean Temperature 52 °F -  
Max Temperature 63 °F 62 °F 75 °F (2000)
Min Temperature 42 °F 43 °F 32 °F (2016)
Degree Days  
Heating Degree Days 12    
Growing Degree Days 2 (Base 50)    
Moisture  
Dew Point 43 °F    
Average Humidity 71    
Maximum Humidity 82    
Minimum Humidity 38    
Precipitation  
Precipitation 0.00 in 0.05 in - ()
Sea Level Pressure  
Sea Level Pressure 30.11 in    
Wind  
Wind Speed 4 mph ()    
Max Wind Speed 9 mph    
Max Gust Speed -    
Visibility 6.6 miles    
Events      
Averages and records for this station are not official NWS values.
T = Trace of Precipitation, MM = Missing Value Source: Averaged Metar Reports

Daily Weather History Graph

Daily Weather History Graph

Search for Another Location

Airport or City:

Trip Planner

Search our weather history database for the weather conditions in past years. The results will help you decide how hot, cold, wet, or windy it might be!

Date:

Astronomy

Feb. 16, 2013 Rise Set
Actual Time 7:52 AM CET 6:39 PM CET
Civil Twilight 7:25 AM CET 7:07 PM CET
Nautical Twilight 6:53 AM CET 7:38 PM CET
Astronomical Twilight 6:22 AM CET 8:09 PM CET
Moon 10:58 AM CET (2/16) 12:23 AM CET (2/16)
Length of Visible Light 11h 41m
Length of Day
10h 47m
Waxing Crescent, 37% of the Moon is Illuminated
Feb 16
Waxing Crescent
Feb 17
First Quarter
Feb 25
Full
Mar 4
Last Quarter
Mar 11
New

Hourly Weather History & Observations

Time (CET) Temp. Windchill Dew Point Humidity Pressure Visibility Wind Dir Wind Speed Gust Speed Precip Events Conditions
12:00 AM 46.4 °F - 41.0 °F 81% 30.15 in - Variable 2.3 mph - N/A   Clear
1:00 AM 47 °F - 39 °F 65% 30.17 in 8 mi NW 6.9 mph - -   Clear
1:00 AM 48.2 °F - 41.0 °F 76% 30.15 in - NW 5.8 mph - N/A   Clear
1:30 AM 46.4 °F 42.9 °F 41.0 °F 81% 30.15 in - NW 6.9 mph - N/A   Clear
2:00 AM 46.4 °F 42.9 °F 41.0 °F 81% 30.15 in - NW 6.9 mph - N/A   Clear
2:30 AM 46.4 °F - 41.0 °F 81% 30.15 in - Variable 2.3 mph - N/A   Clear
3:00 AM 44.6 °F - 39.2 °F 81% 30.15 in - Variable 1.2 mph - N/A   Clear
3:30 AM 44.6 °F 43.1 °F 39.2 °F 81% 30.15 in - WNW 3.5 mph - N/A   Clear
4:00 AM 44.6 °F - 39.2 °F 81% 30.12 in - Variable 2.3 mph - N/A   Clear
4:30 AM 44.6 °F 43.1 °F 39.2 °F 81% 30.12 in 6.2 mi NW 3.5 mph - N/A   Partly Cloudy
5:00 AM 44.6 °F - 39.2 °F 81% 30.12 in 6.2 mi Variable 2.3 mph - N/A   Partly Cloudy
5:30 AM 44.6 °F - 39.2 °F 81% 30.12 in 6.2 mi Calm Calm - N/A   Mostly Cloudy
6:00 AM 44.6 °F 43.1 °F 39.2 °F 81% 30.12 in 6.2 mi WNW 3.5 mph - N/A   Mostly Cloudy
6:30 AM 46.4 °F 45.2 °F 39.2 °F 76% 30.12 in 6.2 mi NW 3.5 mph - N/A   Mostly Cloudy
7:00 AM 46 °F - 36 °F 58% 30.15 in 6 mi WNW 5.8 mph - -   Overcast
7:00 AM 48.2 °F - 39.2 °F 71% 30.12 in 6.2 mi WNW 3.5 mph - N/A   Mostly Cloudy
7:30 AM 48.2 °F - 39.2 °F 71% 30.12 in 6.2 mi NW 4.6 mph - N/A   Mostly Cloudy
8:00 AM 48.2 °F - 37.4 °F 66% 30.12 in 6.2 mi WNW 4.6 mph - N/A   Mostly Cloudy
8:30 AM 48.2 °F - 37.4 °F 66% 30.15 in 6.2 mi NW 5.8 mph - N/A   Mostly Cloudy
9:00 AM 48.2 °F - 37.4 °F 66% 30.15 in 6.2 mi NW 8.1 mph - N/A   Mostly Cloudy
9:30 AM 48.2 °F - 37.4 °F 66% 30.15 in 6.2 mi NW 8.1 mph - N/A   Mostly Cloudy
10:00 AM 50.0 °F - 39.2 °F 66% 30.15 in 6.2 mi NW 6.9 mph - N/A   Mostly Cloudy
10:30 AM 51.8 °F - 39.2 °F 62% 30.15 in 6.2 mi WNW 3.5 mph - N/A   Mostly Cloudy
11:00 AM 53.6 °F - 39.2 °F 58% 30.15 in 6.2 mi Variable 2.3 mph - N/A   Mostly Cloudy
11:30 AM 57.2 °F - 41.0 °F 55% 30.15 in 6.2 mi Calm Calm - N/A   Scattered Clouds
12:30 PM 59.0 °F - 44.6 °F 59% 30.12 in 6.2 mi Variable 1.2 mph - N/A   Partly Cloudy
1:00 PM 62 °F - 43 °F 38% 30.12 in 19 mi ENE 1.2 mph - -   Scattered Clouds
1:00 PM 59.0 °F - 44.6 °F 59% 30.12 in 6.2 mi Variable 1.2 mph - N/A   Partly Cloudy
1:30 PM 60.8 °F - 44.6 °F 55% 30.09 in 6.2 mi Variable 1.2 mph - N/A   Partly Cloudy
2:00 PM 60.8 °F - 44.6 °F 55% 30.06 in 6.2 mi Variable 2.3 mph - N/A   Partly Cloudy
2:30 PM 60.8 °F - 44.6 °F 55% 30.06 in 6.2 mi SE 5.8 mph - N/A   Partly Cloudy
3:00 PM 60.8 °F - 44.6 °F 55% 30.06 in - SE 6.9 mph - N/A   Clear
3:30 PM 60.8 °F - 46.4 °F 59% 30.06 in - East 8.1 mph - N/A   Clear
4:00 PM 60.8 °F - 46.4 °F 59% 30.06 in - ESE 8.1 mph - N/A   Clear
4:30 PM 59.0 °F - 48.2 °F 67% 30.06 in - SE 9.2 mph - N/A   Clear
5:00 PM 57.2 °F - 48.2 °F 72% 30.06 in - SE 8.1 mph - N/A   Clear
5:30 PM 57.2 °F - 50.0 °F 77% 30.04 in 6.2 mi ESE 8.1 mph - N/A   Partly Cloudy
6:00 PM 57.2 °F - 50.0 °F 77% 30.04 in 6.2 mi ENE 6.9 mph - N/A   Partly Cloudy
6:30 PM 55.4 °F - 50.0 °F 82% 30.06 in 6.2 mi ENE 6.9 mph - N/A   Partly Cloudy
7:00 PM 55 °F - 48 °F 69% 30.07 in 6 mi ENE 5.8 mph - -   Overcast
7:00 PM 55.4 °F - 50.0 °F 82% 30.06 in 6.2 mi ENE 5.8 mph - N/A   Scattered Clouds
7:30 PM 55.4 °F - 50.0 °F 82% 30.06 in 6.2 mi NE 5.8 mph - N/A   Scattered Clouds
8:00 PM 55.4 °F - 50.0 °F 82% 30.06 in 6.2 mi NE 4.6 mph - N/A   Scattered Clouds
8:30 PM 55.4 °F - 50.0 °F 82% 30.06 in 6.2 mi NNE 3.5 mph - N/A   Scattered Clouds
10:00 PM 55.4 °F - 50.0 °F 82% 30.06 in 5.6 mi Variable 2.3 mph - N/A   Scattered Clouds
10:30 PM 55.4 °F - 48.2 °F 77% 30.06 in 5.6 mi Variable 2.3 mph - N/A   Scattered Clouds
11:00 PM 53.6 °F - 48.2 °F 82% 30.06 in 5.6 mi NW 5.8 mph - N/A   Scattered Clouds
11:30 PM 53.6 °F - 48.2 °F 82% 30.06 in 6.2 mi NW 3.5 mph - N/A   Scattered Clouds